map of SBZ home
SBZ - Airport
Location
City:  Sibiu, Sibiu, Romania
ICAO:LRSB
IATA:SBZ

Details
Type:Airport (Aerodrome, Airfield)
Use:Public/Civil
Latitude:4547'09"N (45.785800)
Longitude:2405'08"E (24.085583)
Elevation:1520 ft (463 m)
Variation:5.52E (WMM2015 magnetic declination)
0.11 annual change
Runways:1
Longest:8629 × 148 ft (2630 × 45 m)

Time
Time Zone:UTC+2 (DST+3)
Local Time:

Weather
METAR:LRSB 221230Z 25013KT 9999 SHRA VCTS BKN035CB OVC070 18/16 Q1010 R27/29//95
TAF:LRSB 221100Z 2212/2312 VRB04KT CAVOK
TEMPO 2212/2215 5000 TSRA BKN010 BKN025CB PROB30 2212/2214 VRB26G36KT 0800 +TSRAGR SQ
BECMG 2215/2217 35010KT 5000 SHRA SCT030CB
TEMPO 2223/2305 1500 +SHRA BKN005 BKN020CB

Related Locations
Nearby:
Farthest:CHT: 11424 mi / 18385 km
Waitangi [Tuuta], CIT, NZ

Find:

   beyond  
but within

Other Information
Maps:
NOTAMs:
Links:
Sources:

  
  • flag of Romania
  

Sectional Chart

Flight Planning
at skyvector.com

Satellite Image

Google Maps Satellite view

 

Copyright © 2004-2018 Karl L. Swartz. All rights reserved.
The Great Circle Mapper name and logo are trademarks of the Great Circle Mapper.
All other trademarks mentioned herein belong to their respective owners.
Please see credits for attibutions and further copyright information.

  Follow gcmap on Facebook Follow gcmap on Twitter Follow gcmap on Google+ GCmap on LinkedIn

hCard Microformat

Geo Microformat